Tracking 19490 objects as of 23-Jan-2019
HD Live streaming from Space Station
objects crossing your sky now

APRIZESAT 1

Track APRIZESAT 1 now!
10-day predictions
APRIZESAT 1 is classified as:


NORAD ID: 28372
Int'l Code: 2004-025G
Perigee: 700.4 km
Apogee: 768.0 km
Inclination: 98.3 °
Period: 99.3 minutes
Semi major axis: 7105 km
RCS: 0.0588 m2 (small)
Launch date: June 29, 2004
Source: United States (US)
Launch site: TYURATAM MISSILE AND SPACE COMPLEX (TTMTR)

Messaging services.
aabbcc
Your satellite tracking list
Your tracking list is empty




NASA's NSSDC Master Catalog

Two Line Element Set (TLE):
1 28372U 04025G   19022.81968503 +.00000001 +00000-0 +11812-4 0  9995
2 28372 098.3287 331.0482 0047552 101.5834 259.0703 14.49574239770218
Source of the keplerian elements: AFSPC